This is the latest recevied weather packets stored in our database for station/object NG7N. If no packets are shown the sender has not sent any weather packets the latest 10 day(s).
| Time | Temp. | Humidity | Pressure | Rain* | Wind** | Luminosity | Snow |
|---|---|---|---|---|---|---|---|
| 1777496361 | 15.56° C | 65% | 1023.6 hPa | 0 mm | - | - | - |
| 1777494561 | 15° C | 67% | 1024 hPa | 0 mm | - | - | - |
| 1777492812 | 14.44° C | 67% | 1024.1 hPa | 0 mm | - | - | - |
| 1777492760 | 14.44° C | 67% | 1024.1 hPa | 0 mm | - | - | - |
| 1777487360 | 12.78° C | 73% | 1024.7 hPa | 0 mm | - | - | - |
| 1777486160 | 12.78° C | 74% | 1024.7 hPa | 0 mm | - | - | - |
| 1777485561 | 12.22° C | 73% | 1024.9 hPa | 0 mm | - | - | - |
| 1777484961 | 12.22° C | 75% | 1024.9 hPa | 0 mm | - | - | - |
| 1777483161 | 11.11° C | 78% | 1025.1 hPa | 0 mm | - | - | - |
| 1777482561 | 11.11° C | 78% | 1025.1 hPa | 0 mm | - | - | - |
| 1777481961 | 11.11° C | 77% | 1025.3 hPa | 0 mm | - | - | - |
| 1777480761 | 10.56° C | 78% | 1025.3 hPa | 0 mm | - | - | - |
| 1777480160 | 10.56° C | 79% | 1025.5 hPa | 0 mm | - | - | - |
| 1777478960 | 10° C | 80% | 1025.6 hPa | 0 mm | - | - | - |
| 1777478363 | 10° C | 80% | 1025.7 hPa | 0 mm | - | - | - |
| 1777477460 | 10° C | 82% | 1025.7 hPa | 0 mm | - | - | - |
| 1777476860 | 9.44° C | 82% | 1025.7 hPa | 0 mm | - | - | - |
| 1777476560 | 9.44° C | 82% | 1025.7 hPa | 0 mm | - | - | - |
| 1777476115 | 9.44° C | 83% | 1025.7 hPa | 0 mm | - | - | - |
| 1777475960 | 9.44° C | 83% | 1025.7 hPa | 0 mm | - | - | - |
| 1777474760 | 9.44° C | 82% | 1025.6 hPa | 0 mm | - | - | - |
| 1777474495 | 10° C | 82% | 1025.6 hPa | 0 mm | - | - | - |
| 1777474461 | 10° C | 82% | 1025.6 hPa | 0 mm | - | - | - |
| 1777473861 | 10° C | 82% | 1025.6 hPa | 0 mm | - | - | - |
| 1777473560 | 10° C | 84% | 1025.6 hPa | 0 mm | - | - | - |
* Rain latest hour (hover to see other rain measurements)
** Current wind speed in m/s (hover to see current wind gust speed)